Weather History for Oxford, CT

Change the Weather History Date:

Saturday, August 17, 2013

  Actual Average Record
Temperature  
Mean Temperature 65 °F -  
Max Temperature 77 °F 76 °F 87 °F (2002)
Min Temperature 53 °F 59 °F 53 °F (2008)
Growing Degree Days 15 (Base 50)    
Moisture  
Dew Point 54 °F    
Average Humidity 75    
Maximum Humidity 88    
Minimum Humidity 44    
Precipitation  
Precipitation 0.00 in - - ()
Sea Level Pressure  
Sea Level Pressure 30.28 in    
Wind  
Wind Speed 1 mph (NNE)    
Max Wind Speed 8 mph    
Max Gust Speed -    
Visibility 10 miles    
Events      
Averages and records for this station are not official NWS values.
T = Trace of Precipitation, MM = Missing Value Source: NWS Daily Summary

Daily Weather History Graph

Daily Weather History Graph

Search for Another Location

Airport:

Trip Planner

Search our weather history database for the weather conditions in past years. The results will help you decide how hot, cold, wet, or windy it might be!

Date:

Astronomy

Aug. 17, 2013 Rise Set
Actual Time 6:03 AM EDT 7:48 PM EDT
Civil Twilight 5:34 AM EDT 8:18 PM EDT
Nautical Twilight 4:58 AM EDT 8:53 PM EDT
Astronomical Twilight 4:19 AM EDT 9:32 PM EDT
Moon 5:02 PM EDT 2:02 AM EDT
Length of Visible Light 14h 44m
Length of Day
13h 45m
Waxing Gibbous, 84% of the Moon is Illuminated
Aug 17
Waxing Gibbous
Aug 20
Full
Aug 28
Last Quarter
Sep 5
New
Sep 12
First Quarter

Hourly Weather History & Observations

Time (EDT) Temp. Dew Point Humidity Pressure Visibility Wind Dir Wind Speed Gust Speed Precip Events Conditions
12:15 AM 57.2 °F 51.8 °F 82% 30.25 in 10.0 mi Calm Calm - N/A   Clear
12:35 AM 57.2 °F 51.8 °F 82% 30.25 in 10.0 mi Calm Calm - N/A   Clear
12:55 AM 57.2 °F 51.8 °F 82% 30.25 in 10.0 mi Calm Calm - N/A   Clear
1:15 AM 55.4 °F 50.0 °F 82% 30.25 in 10.0 mi Calm Calm - N/A   Clear
1:35 AM 55.4 °F 51.8 °F 88% 30.25 in 10.0 mi Calm Calm - N/A   Clear
1:55 AM 55.4 °F 50.0 °F 82% 30.25 in 10.0 mi Calm Calm - N/A   Clear
2:15 AM 55.4 °F 51.8 °F 88% 30.25 in 10.0 mi Calm Calm - N/A   Clear
2:35 AM 57.2 °F 51.8 °F 82% 30.25 in 10.0 mi Calm Calm - N/A   Clear
2:55 AM 55.4 °F 50.0 °F 82% 30.25 in 10.0 mi Calm Calm - N/A   Clear
3:15 AM 55.4 °F 50.0 °F 82% 30.25 in 10.0 mi Calm Calm - N/A   Clear
3:35 AM 55.4 °F 51.8 °F 88% 30.25 in 10.0 mi Calm Calm - N/A   Clear
3:55 AM 53.6 °F 50.0 °F 88% 30.26 in 10.0 mi Calm Calm - N/A   Clear
4:15 AM 53.6 °F 50.0 °F 88% 30.26 in 10.0 mi Calm Calm - N/A   Clear
4:35 AM 53.6 °F 50.0 °F 88% 30.26 in 10.0 mi Calm Calm - N/A   Clear
4:55 AM 53.6 °F 48.2 °F 82% 30.26 in 10.0 mi North 3.5 mph - N/A   Clear
5:15 AM 53.6 °F 48.2 °F 82% 30.26 in 10.0 mi Calm Calm - N/A   Clear
5:35 AM 55.4 °F 50.0 °F 82% 30.26 in 10.0 mi North 4.6 mph - N/A   Clear
5:50 AM 55.4 °F 50.0 °F 82% 30.27 in 10.0 mi North 5.8 mph - N/A   Clear
5:55 AM 55.4 °F 50.0 °F 82% 30.27 in 10.0 mi North 4.6 mph - N/A   Clear
6:15 AM 55.4 °F 50.0 °F 82% 30.27 in 10.0 mi NNW 4.6 mph - N/A   Clear
6:35 AM 55.4 °F 50.0 °F 82% 30.28 in 10.0 mi NNW 3.5 mph - N/A   Clear
6:55 AM 57.2 °F 51.8 °F 82% 30.28 in 10.0 mi Calm Calm - N/A   Clear
7:15 AM 59.0 °F 53.6 °F 82% 30.29 in 10.0 mi Calm Calm - N/A   Clear
7:35 AM 60.8 °F 53.6 °F 77% 30.29 in 10.0 mi Calm Calm - N/A   Clear
7:50 AM 62.6 °F 55.4 °F 77% 30.29 in 10.0 mi North 3.5 mph - N/A   Clear
7:55 AM 62.6 °F 55.4 °F 77% 30.29 in 10.0 mi North 5.8 mph - N/A   Clear
8:15 AM 64.4 °F 55.4 °F 73% 30.30 in 10.0 mi NNE 3.5 mph - N/A   Clear
8:35 AM 66.2 °F 55.4 °F 68% 30.30 in 10.0 mi NNE 5.8 mph - N/A   Clear
8:55 AM 66.2 °F 55.4 °F 68% 30.30 in 10.0 mi NE 5.8 mph - N/A   Clear
9:54 AM 69.8 °F 57.2 °F 64% 30.31 in 10.0 mi East 4.6 mph - N/A   Clear
10:45 AM 73.4 °F 57.2 °F 57% 30.32 in 10.0 mi East 4.6 mph - N/A   Clear
11:45 AM 73.4 °F 55.4 °F 53% 30.31 in 10.0 mi NE 8.1 mph - N/A   Partly Cloudy
12:45 PM 77.0 °F 55.4 °F 47% 30.31 in 10.0 mi Calm Calm - N/A   Mostly Cloudy
1:45 PM 77.0 °F 55.4 °F 47% 30.31 in 10.0 mi Calm Calm - N/A   Mostly Cloudy
2:45 PM 77.0 °F 55.4 °F 47% 30.30 in 10.0 mi Calm Calm - N/A   Scattered Clouds
3:45 PM 77.0 °F 53.6 °F 44% 30.28 in 10.0 mi Calm Calm - N/A   Scattered Clouds
4:45 PM 75.2 °F 57.2 °F 53% 30.29 in 10.0 mi Calm Calm - N/A   Scattered Clouds
5:45 PM 75.2 °F 57.2 °F 53% 30.29 in 10.0 mi Calm Calm - N/A   Partly Cloudy
6:45 PM 73.4 °F 59.0 °F 61% 30.29 in 10.0 mi Calm Calm - N/A   Partly Cloudy
7:45 PM 69.8 °F 60.8 °F 73% 30.29 in 10.0 mi Calm Calm - N/A   Partly Cloudy
8:45 PM 66.2 °F 59.0 °F 78% 30.29 in 10.0 mi Calm Calm - N/A   Clear
9:15 PM 64.4 °F 57.2 °F 77% 30.30 in 10.0 mi Calm Calm - N/A   Clear
9:35 PM 64.4 °F 57.2 °F 77% 30.30 in 10.0 mi Calm Calm - N/A   Clear
9:55 PM 64.4 °F 55.4 °F 73% 30.30 in 10.0 mi Calm Calm - N/A   Clear
10:15 PM 64.4 °F 55.4 °F 73% 30.31 in 10.0 mi Calm Calm - N/A   Clear
10:35 PM 62.6 °F 55.4 °F 77% 30.31 in 10.0 mi Calm Calm - N/A   Clear
10:55 PM 62.6 °F 55.4 °F 77% 30.31 in 10.0 mi Calm Calm - N/A   Clear
11:15 PM 60.8 °F 55.4 °F 82% 30.31 in 10.0 mi Calm Calm - N/A   Clear
11:35 PM 62.6 °F 55.4 °F 77% 30.31 in 10.0 mi Calm Calm - N/A   Clear
11:55 PM 60.8 °F 53.6 °F 77% 30.31 in 10.0 mi Calm Calm - N/A   Clear